Tracking 19638 objects as of 20-May-2019
HD Live streaming from Space Station
objects crossing your sky now

SECOR 1B

Track SECOR 1B now!
10-day predictions
SECOR 1B is classified as:


NORAD ID: 729
Int'l Code: 1964-001C
Perigee: 909.2 km
Apogee: 928.1 km
Inclination: 69.9 °
Period: 103.2 minutes
Semi major axis: 7289 km
RCS: 0.2364 m2 (medium)
Launch date: January 11, 1964
Source: United States (US)
Launch site: AIR FORCE WESTERN TEST RANGE (AFWTR)
aabbcc
Your satellite tracking list
Your tracking list is empty




NASA's NSSDC Master Catalog

Two Line Element Set (TLE):
1   729U 64001C   19139.87612150 -.00000046  00000-0  54235-5 0  9997
2   729  69.9014  76.7530 0012970 161.7839 198.3733 13.94892652816706
Source of the keplerian elements: AFSPC